Flag for Australia Weather past 2 weeks in Cairns, Queensland, Australia

Now
66 °F

Passing clouds.


Feels Like: 66 °F
Forecast: 66 / 83 °F
Wind: 9 mph from Southeast

Location: Cairns Airport

Current Time: Sep 21, 2014 at 6:02:46 AM

Latest Report: Sep 21, 2014 at 5:00 AM


Visibility: N/A

Pressure: 29.98 "Hg

Humidity: 73%

Dew point: 57 °F

Location of CairnsLocation

Historic Weather in Cairns — Graph

°F

Cairns temperature yesterday

Maximum temperature yesterday: 86 °F (at 1:30 PM)
Minimum temperature yesterday: 64 °F (at 2:00 AM)
Average temperature yesterday: 73 °F

Past Weeks' High & Low Weather Summary

 TemperatureHumidityPressure
High86 °F (Sep 17, 1:30 PM)100% (Sep 8, 12:30 AM)30.15 "Hg (Sep 8, 12:30 AM)
Low55 °F (Sep 18, 3:30 AM)13% (Sep 17, 2:30 PM)29.89 "Hg (Sep 16, 3:30 PM)
Average72 °F68%30.02 "Hg
* Reported Sep 6 4:00 AM — Sep 21 4:30 AM, Cairns, Weather by CustomWeather, © 2014

Note: Actual official high and low records may vary slightly from our data, if they occured in-between our weather recording intervals... More about our weather records

Advertising

Cairns weather history for previous 24 hours

 ConditionsComfort  
Time TempWeatherWind HumidityBarometerVisibility
4:30 AM
Sep 21
66 °FClear.10 mph73%29.98 "Hg10 mi
4:00 AM68 °FClear.10 mph69%29.98 "Hg10 mi
11:00 PM
Sep 20
70 °FClear.7 mph78%30.04 "Hg10 mi
10:30 PM70 °FClear.7 mph78%30.04 "Hg10 mi
10:00 PM72 °FClear.6 mph73%30.04 "Hg10 mi
9:30 PM72 °FClear.3 mph73%30.04 "Hg10 mi
9:00 PM72 °FClear.5 mph78%30.04 "Hg10 mi
8:00 PM68 °FClear.1 mph78%30.01 "Hg10 mi
7:30 PM70 °FClear.2 mph69%30.01 "Hg10 mi
7:00 PM72 °FClear.5 mph61%30.01 "Hg10 mi
6:00 PM77 °FSunny.9 mph47%29.98 "Hg10 mi
5:30 PM77 °FSunny.9 mph44%29.95 "Hg10 mi
5:00 PM81 °FSunny.10 mph32%29.95 "Hg10 mi
4:30 PM81 °FSunny.13 mph34%29.92 "Hg10 mi
4:00 PM82 °FSunny.14 mph35%29.92 "Hg10 mi
3:30 PM84 °FSunny.16 mph31%29.92 "Hg10 mi
3:00 PM82 °FSunny.16 mph37%29.92 "Hg10 mi
2:00 PM86 °FSunny.14 mph29%29.92 "Hg10 mi
1:30 PM86 °FSunny.14 mph31%29.95 "Hg10 mi
1:00 PM84 °FSunny.13 mph43%29.95 "Hg10 mi
12:30 PM84 °FSunny.13 mph43%29.98 "Hg10 mi
12:00 PM84 °FSunny.9 mph37%30.01 "Hg10 mi
11:00 AM82 °FPassing clouds.10 mph42%30.04 "HgN/A
10:00 AM79 °FPassing clouds.8 mph54%30.07 "HgN/A
9:30 AM77 °FPassing clouds.9 mph57%30.07 "HgN/A
9:00 AM77 °FPassing clouds.8 mph57%30.07 "HgN/A
8:30 AM75 °FPassing clouds.9 mph61%30.07 "HgN/A
8:00 AM70 °FPassing clouds.10 mph73%30.07 "HgN/A
7:00 AM66 °FScattered clouds.8 mph83%30.04 "HgN/A
6:30 AM64 °FPassing clouds.13 mph88%30.01 "HgN/A
6:00 AM64 °FPassing clouds.15 mph88%30.01 "HgN/A
Weather by CustomWeather, © 2014

See weather overviewHow to use our weather pages